2021-102K (49404 NORAD) Tracking and Keplerian Element Data

This shows tracking and keplerian element data for the satellite.

Feedback or suggestion? Click here.




ElementValue
Catalog49404
Name2021-102K
Epoch Orbit407
Epoch Day340.17634951
Epoch Year2021
RAAN39.1283
Inclination97.5663
Eccentricity0.0028098
Argument of Perigee153.8233
Mean Anonmoly291.3554
Mean Motion15.03872966
Decay Rate7.62E-06
L11 49404U 21102K 21340.17634951 .00000762 00000+0 59288-4 0 9993
L22 49404 97.5663 39.1283 0028098 153.8233 291.3554 15.03872966 4074

Live tracking and technical data element details for 2021-102K (NORAD 49404). 2021-102K can be tracked NOW for your location showing map with azimuth and elevation plus other details from your city location.

Track the satellite on the map from your city or location and see movement details for azimuth, elevation, latitude, longitude, range, height, and movement on the map or in text.







IsCatalogInMostPopularTable: catalog: 49404, numindb: 6
Update: records affected: 1



GetName: 49404 2021-102K

Hit Count: updated at: Thu, 20 Jan 2022 16:23:47 GMT